| time (UTC) | temp F | wind direction | speed knots | gust knots | rain 1hr in | rain 24hr in | rain mn in | humidity % | barometer mb |
| 20260504130459 | 55 | 205 | 2.6 | 7.0 | 0.00 | 0.00 | 0.00 | 58 | 1010.6 |
| 20260504110346 | 46 | 236 | 1.7 | 5.2 | 0.00 | 0.00 | 0.00 | 69 | 1010.6 |
| 20260504100303 | 45 | 148 | 0.9 | 4.3 | 0.00 | 0.00 | 0.00 | 70 | 1010.8 |
| 20260504081657 | 44 | 209 | 0.0 | 1.7 | 0.00 | 0.00 | 0.00 | 71 | 1011.7 |
| 20260504081153 | 44 | 288 | 1.7 | 2.6 | 0.00 | 0.00 | 0.00 | 70 | 1011.8 |
| 20260504080649 | 44 | 215 | 0.0 | 2.6 | 0.00 | 0.00 | 0.00 | 70 | 1011.8 |
| 20260504080146 | 44 | 192 | 0.0 | 3.5 | 0.00 | 0.00 | 0.00 | 70 | 1011.7 |
| 20260504070114 | 45 | 249 | 0.9 | 4.3 | 0.00 | 0.00 | 0.00 | 68 | 1012.4 |
| 20260504050502 | 47 | 187 | 1.7 | 3.5 | 0.00 | 0.00 | 0.00 | 60 | 1013.0 |
| 20260504045959 | 47 | 233 | 1.7 | 6.1 | 0.00 | 0.00 | 0.00 | 59 | 1013.1 |
| 20260504045455 | 47 | 180 | 2.6 | 7.0 | 0.00 | 0.00 | 0.00 | 60 | 1013.0 |
| 20260504044951 | 46 | 215 | 2.6 | 10.4 | 0.00 | 0.00 | 0.00 | 62 | 1013.3 |
| 20260504044449 | 46 | 281 | 2.6 | 3.5 | 0.00 | 0.00 | 0.00 | 63 | 1013.2 |
| 20260504043946 | 46 | 209 | 0.0 | 2.6 | 0.00 | 0.00 | 0.00 | 61 | 1013.0 |
| 20260504043443 | 46 | 225 | 1.7 | 2.6 | 0.00 | 0.00 | 0.00 | 62 | 1013.3 |
| 20260504042941 | 47 | 217 | 0.0 | 6.1 | 0.00 | 0.00 | 0.00 | 61 | 1013.1 |
| 20260504042437 | 47 | 286 | 0.0 | 2.6 | 0.00 | 0.00 | 0.00 | 61 | 1013.0 |
| 20260504041934 | 47 | 187 | 0.0 | 1.7 | 0.00 | 0.00 | 0.00 | 61 | 1013.4 |
| 20260504041430 | 47 | 189 | 3.5 | 4.3 | 0.00 | 0.00 | 0.00 | 61 | 1013.0 |
| 20260504040926 | 47 | 195 | 0.0 | 4.3 | 0.00 | 0.00 | 0.00 | 61 | 1013.2 |
| 20260504040424 | 47 | 221 | 1.7 | 4.3 | 0.00 | 0.00 | 0.00 | 61 | 1013.3 |
| 20260504035919 | 47 | 219 | 3.5 | 6.1 | 0.00 | 0.00 | 0.00 | 61 | 1013.2 |
| 20260504035417 | 47 | 172 | 0.0 | 2.6 | 0.00 | 0.00 | 0.00 | 62 | 1013.2 |
| 20260504034914 | 47 | 219 | 2.6 | 2.6 | 0.00 | 0.00 | 0.00 | 62 | 1013.4 |
| 20260504034411 | 48 | 233 | 2.6 | 5.2 | 0.00 | 0.00 | 0.00 | 61 | 1013.4 |
| 20260504033908 | 48 | 215 | 5.2 | 5.2 | 0.00 | 0.00 | 0.00 | 60 | 1013.4 |
| 20260504033406 | 48 | 219 | 2.6 | 3.5 | 0.00 | 0.00 | 0.00 | 59 | 1013.2 |
| 20260504032903 | 48 | 243 | 0.0 | 4.3 | 0.00 | 0.00 | 0.00 | 60 | 1013.2 |
| 20260504032359 | 48 | 198 | 2.6 | 4.3 | 0.00 | 0.00 | 0.00 | 60 | 1013.3 |
| 20260504031856 | 48 | 233 | 7.0 | 7.0 | 0.00 | 0.00 | 0.00 | 59 | 1013.4 |
| 20260504031353 | 48 | 270 | 4.3 | 4.3 | 0.00 | 0.00 | 0.00 | 59 | 1013.2 |
| 20260504030849 | 48 | 216 | 2.6 | 2.6 | 0.00 | 0.00 | 0.00 | 60 | 1013.3 |
| 20260504030347 | 48 | 180 | 0.0 | 3.5 | 0.00 | 0.00 | 0.00 | 60 | 1013.3 |
| 20260504025843 | 48 | 249 | 0.0 | 4.3 | 0.00 | 0.00 | 0.00 | 59 | 1013.5 |
| 20260504025340 | 48 | 240 | 1.7 | 4.3 | 0.00 | 0.00 | 0.00 | 59 | 1013.5 |
| 20260504024837 | 48 | 180 | 0.0 | 4.3 | 0.00 | 0.00 | 0.00 | 60 | 1013.4 |
| 20260504024333 | 48 | 260 | 2.6 | 2.6 | 0.00 | 0.00 | 0.00 | 59 | 1013.5 |
| 20260504023830 | 49 | 233 | 4.3 | 4.3 | 0.00 | 0.00 | 0.00 | 57 | 1013.7 |
| 20260504023327 | 49 | 225 | 1.7 | 6.1 | 0.00 | 0.00 | 0.00 | 57 | 1013.1 |
| 20260504022822 | 49 | 301 | 1.7 | 2.6 | 0.00 | 0.00 | 0.00 | 58 | 1013.7 |
| 20260504022320 | 49 | 312 | 1.7 | 4.3 | 0.00 | 0.00 | 0.00 | 58 | 1013.5 |
| 20260504021816 | 49 | 332 | 1.7 | 4.3 | 0.00 | 0.00 | 0.00 | 57 | 1013.7 |
| 20260504021314 | 49 | 241 | 0.0 | 4.3 | 0.00 | 0.00 | 0.00 | 57 | 1013.4 |
| 20260504020811 | 49 | 213 | 1.7 | 6.1 | 0.00 | 0.00 | 0.00 | 57 | 1013.5 |
| 20260504020307 | 48 | 172 | 1.7 | 3.5 | 0.00 | 0.00 | 0.00 | 58 | 1013.5 |
| 20260504015803 | 48 | 151 | 0.9 | 0.9 | 0.00 | 0.00 | 0.00 | 58 | 1013.3 |
| 20260504015300 | 49 | 212 | 0.0 | 1.7 | 0.00 | 0.00 | 0.00 | 57 | 1013.2 |
| 20260504014755 | 49 | 279 | 1.7 | 1.7 | 0.00 | 0.00 | 0.00 | 58 | 1013.3 |
| 20260504014252 | 50 | 180 | 1.7 | 2.6 | 0.00 | 0.00 | 0.00 | 56 | 1013.5 |
| 20260504013750 | 50 | 183 | 2.6 | 5.2 | 0.00 | 0.00 | 0.00 | 54 | 1013.2 |
| 20260504013247 | 50 | 248 | 2.6 | 5.2 | 0.00 | 0.00 | 0.00 | 55 | 1013.4 |
| 20260504012743 | 50 | 257 | 1.7 | 3.5 | 0.00 | 0.00 | 0.00 | 56 | 1013.2 |
| 20260504012242 | 50 | 257 | 0.9 | 2.6 | 0.00 | 0.00 | 0.00 | 55 | 1013.2 |
| 20260504011738 | 50 | 239 | 1.7 | 7.0 | 0.00 | 0.00 | 0.00 | 54 | 1013.1 |
| 20260504011235 | 50 | 243 | 1.7 | 3.5 | 0.00 | 0.00 | 0.00 | 54 | 1013.2 |
| 20260504010731 | 50 | 229 | 0.0 | 1.7 | 0.00 | 0.00 | 0.00 | 55 | 1013.4 |
| 20260504010227 | 51 | 206 | 0.0 | 1.7 | 0.00 | 0.00 | 0.00 | 53 | 1013.3 |
| 20260504005724 | 51 | 213 | 3.5 | 5.2 | 0.00 | 0.00 | 0.00 | 52 | 1013.3 |
| 20260504005221 | 51 | 312 | 0.0 | 3.5 | 0.00 | 0.00 | 0.00 | 53 | 1013.3 |
| 20260504004718 | 51 | 233 | 2.6 | 5.2 | 0.00 | 0.00 | 0.00 | 52 | 1013.2 |
| 20260504004215 | 51 | 263 | 0.9 | 5.2 | 0.00 | 0.00 | 0.00 | 51 | 1013.2 |
| 20260504003712 | 51 | 213 | 0.0 | 3.5 | 0.00 | 0.00 | 0.00 | 52 | 1013.0 |
| 20260504003209 | 52 | 245 | 2.6 | 5.2 | 0.00 | 0.00 | 0.00 | 51 | 1013.2 |
| 20260504002705 | 52 | 270 | 1.7 | 9.6 | 0.00 | 0.00 | 0.00 | 50 | 1013.3 |
| 20260504002203 | 52 | 206 | 3.5 | 7.0 | 0.00 | 0.00 | 0.00 | 50 | 1013.2 |
| 20260504001701 | 52 | 226 | 4.3 | 4.3 | 0.00 | 0.00 | 0.00 | 50 | 1013.0 |
| 20260504001156 | 53 | 210 | 6.1 | 7.8 | 0.00 | 0.00 | 0.00 | 49 | 1013.0 |
| 20260504000648 | 53 | 233 | 2.6 | 7.0 | 0.00 | 0.00 | 0.00 | 48 | 1012.9 |
| 20260504000145 | 53 | 215 | 5.2 | 7.0 | 0.00 | 0.00 | 0.00 | 48 | 1012.9 |
| 20260503235643 | 53 | 228 | 1.7 | 5.2 | 0.00 | 0.00 | 0.00 | 49 | 1012.9 |
| 20260503235140 | 53 | 183 | 3.5 | 5.2 | 0.00 | 0.00 | 0.00 | 48 | 1013.1 |
| 20260503234638 | 54 | 168 | 1.7 | 13.0 | 0.00 | 0.00 | 0.00 | 47 | 1013.0 |
| 20260503234136 | 53 | 188 | 4.3 | 9.6 | 0.00 | 0.00 | 0.00 | 48 | 1013.1 |
| 20260503233632 | 54 | 225 | 1.7 | 7.8 | 0.00 | 0.00 | 0.00 | 48 | 1013.1 |
| 20260503233128 | 54 | 287 | 2.6 | 8.7 | 0.00 | 0.00 | 0.00 | 48 | 1013.0 |
| 20260503232625 | 54 | 322 | 2.6 | 7.8 | 0.00 | 0.00 | 0.00 | 47 | 1013.0 |
| 20260503232123 | 54 | 270 | 6.1 | 6.1 | 0.00 | 0.00 | 0.00 | 47 | 1013.0 |
| 20260503231620 | 54 | 322 | 1.7 | 9.6 | 0.00 | 0.00 | 0.00 | 46 | 1013.2 |
| 20260503231117 | 54 | 228 | 4.3 | 9.6 | 0.00 | 0.00 | 0.00 | 47 | 1012.9 |
| 20260503230614 | 54 | 251 | 2.6 | 7.0 | 0.00 | 0.00 | 0.00 | 47 | 1013.0 |
| 20260503230111 | 54 | 307 | 2.6 | 11.3 | 0.00 | 0.00 | 0.00 | 47 | 1013.0 |
| 20260503225608 | 54 | 231 | 5.2 | 10.4 | 0.00 | 0.00 | 0.00 | 46 | 1012.9 |
| 20260503225102 | 54 | 221 | 8.7 | 13.9 | 0.00 | 0.00 | 0.00 | 45 | 1013.0 |
| 20260503224600 | 54 | 217 | 11.3 | 13.0 | 0.00 | 0.00 | 0.00 | 45 | 1013.1 |
| 20260503224058 | 55 | 226 | 3.5 | 4.3 | 0.00 | 0.00 | 0.00 | 46 | 1013.2 |
| 20260503223555 | 55 | 250 | 4.3 | 11.3 | 0.00 | 0.00 | 0.00 | 45 | 1013.0 |
| 20260503223050 | 55 | 214 | 4.3 | 15.6 | 0.00 | 0.00 | 0.00 | 45 | 1012.9 |
| 20260503222549 | 55 | 237 | 4.3 | 9.6 | 0.00 | 0.00 | 0.00 | 45 | 1013.0 |
| 20260503222047 | 55 | 235 | 10.4 | 11.3 | 0.00 | 0.00 | 0.00 | 45 | 1013.0 |
| 20260503221544 | 55 | 270 | 4.3 | 6.1 | 0.00 | 0.00 | 0.00 | 46 | 1012.9 |
| 20260503221042 | 55 | 319 | 1.7 | 10.4 | 0.00 | 0.00 | 0.00 | 45 | 1012.7 |
| 20260503220538 | 56 | 281 | 2.6 | 8.7 | 0.00 | 0.00 | 0.00 | 45 | 1013.1 |
| 20260503220035 | 55 | 305 | 1.7 | 10.4 | 0.00 | 0.00 | 0.00 | 46 | 1013.1 |
| 20260503215532 | 55 | 194 | 6.1 | 14.8 | 0.00 | 0.00 | 0.00 | 44 | 1013.0 |
| 20260503215029 | 56 | 217 | 0.0 | 9.6 | 0.00 | 0.00 | 0.00 | 44 | 1013.0 |
| 20260503214527 | 56 | 285 | 12.2 | 12.2 | 0.00 | 0.00 | 0.00 | 43 | 1012.9 |
| 20260503214023 | 55 | 162 | 0.9 | 7.0 | 0.00 | 0.00 | 0.00 | 47 | 1013.0 |
| 20260503213522 | 55 | 212 | 4.3 | 14.8 | 0.00 | 0.00 | 0.00 | 45 | 1012.9 |
| 20260503213018 | 57 | 213 | 8.7 | 12.2 | 0.00 | 0.00 | 0.00 | 43 | 1012.8 |
| 20260503212516 | 58 | 249 | 0.0 | 7.0 | 0.00 | 0.00 | 0.00 | 44 | 1013.0 |
| 20260503212013 | 56 | 239 | 5.2 | 14.8 | 0.00 | 0.00 | 0.00 | 44 | 1013.0 |
| 20260503211510 | 58 | 185 | 0.9 | 8.7 | 0.00 | 0.00 | 0.00 | 43 | 1013.2 |
| 20260503211010 | 57 | 229 | 2.6 | 7.8 | 0.00 | 0.00 | 0.00 | 45 | 1013.0 |
| 20260503210508 | 55 | 205 | 4.3 | 9.6 | 0.00 | 0.00 | 0.00 | 46 | 1013.0 |
| 20260503210005 | 56 | 294 | 1.7 | 6.1 | 0.00 | 0.00 | 0.00 | 46 | 1012.9 |
| 20260503205501 | 56 | 216 | 1.7 | 6.1 | 0.00 | 0.00 | 0.00 | 43 | 1013.0 |
| 20260503204956 | 57 | 246 | 2.6 | 7.8 | 0.00 | 0.00 | 0.00 | 45 | 1013.0 |
| 20260503204454 | 56 | 263 | 0.9 | 8.7 | 0.00 | 0.00 | 0.00 | 43 | 1013.0 |
| 20260503203950 | 57 | 319 | 4.3 | 7.8 | 0.00 | 0.00 | 0.00 | 43 | 1013.1 |
| 20260503203448 | 57 | 255 | 3.5 | 8.7 | 0.00 | 0.00 | 0.00 | 44 | 1013.1 |
| 20260503202945 | 56 | 222 | 7.8 | 9.6 | 0.00 | 0.00 | 0.00 | 45 | 1013.0 |
| 20260503202443 | 56 | 235 | 7.0 | 12.2 | 0.00 | 0.00 | 0.00 | 44 | 1013.2 |
| 20260503201941 | 54 | 234 | 7.8 | 10.4 | 0.00 | 0.00 | 0.00 | 45 | 1013.5 |
| 20260503201438 | 54 | 265 | 6.1 | 14.8 | 0.00 | 0.00 | 0.00 | 45 | 1013.7 |
| 20260503200935 | 56 | 248 | 2.6 | 14.8 | 0.00 | 0.00 | 0.00 | 43 | 1013.4 |
| 20260503200432 | 56 | 178 | 3.5 | 16.5 | 0.00 | 0.00 | 0.00 | 44 | 1013.5 |
| 20260503195928 | 56 | 225 | 3.5 | 11.3 | 0.00 | 0.00 | 0.00 | 46 | 1013.7 |
| 20260503195426 | 54 | 209 | 4.3 | 8.7 | 0.00 | 0.00 | 0.00 | 47 | 1013.7 |
| 20260503194922 | 54 | 262 | 5.2 | 9.6 | 0.00 | 0.00 | 0.00 | 45 | 1013.8 |
| 20260503194419 | 54 | 283 | 2.6 | 11.3 | 0.00 | 0.00 | 0.00 | 46 | 1013.8 |
| 20260503193914 | 54 | 257 | 8.7 | 16.5 | 0.00 | 0.00 | 0.00 | 47 | 1013.9 |
| 20260503193409 | 54 | 251 | 2.6 | 12.2 | 0.00 | 0.00 | 0.00 | 44 | 1014.0 |
| 20260503192905 | 56 | 214 | 3.5 | 4.3 | 0.00 | 0.00 | 0.00 | 47 | 1014.0 |
| 20260503192401 | 55 | 202 | 3.5 | 9.6 | 0.00 | 0.00 | 0.00 | 45 | 1014.1 |
| 20260503191858 | 54 | 172 | 3.5 | 9.6 | 0.00 | 0.00 | 0.00 | 45 | 1014.4 |
| 20260503191355 | 54 | 270 | 0.0 | 7.8 | 0.00 | 0.00 | 0.00 | 46 | 1014.4 |
| 20260503190852 | 55 | 268 | 4.3 | 9.6 | 0.00 | 0.00 | 0.00 | 44 | 1014.3 |
| 20260503190349 | 57 | 276 | 4.3 | 9.6 | 0.00 | 0.00 | 0.00 | 45 | 1014.4 |
| 20260503185846 | 55 | 233 | 11.3 | 17.4 | 0.00 | 0.00 | 0.00 | 44 | 1014.2 |
| 20260503185343 | 55 | 255 | 6.1 | 11.3 | 0.00 | 0.00 | 0.00 | 44 | 1014.4 |
| 20260503184842 | 55 | 291 | 0.9 | 7.8 | 0.00 | 0.00 | 0.00 | 47 | 1014.5 |
| 20260503184339 | 54 | 172 | 1.7 | 9.6 | 0.00 | 0.00 | 0.00 | 47 | 1014.6 |
| 20260503183835 | 55 | 270 | 0.0 | 8.7 | 0.00 | 0.00 | 0.00 | 47 | 1014.7 |
| 20260503183332 | 56 | 245 | 4.3 | 7.0 | 0.00 | 0.00 | 0.00 | 45 | 1014.6 |
| 20260503182829 | 56 | 251 | 4.3 | 7.0 | 0.00 | 0.00 | 0.00 | 45 | 1014.8 |
| 20260503182328 | 54 | 220 | 2.6 | 7.8 | 0.00 | 0.00 | 0.00 | 46 | 1014.8 |
| 20260503181825 | 53 | 194 | 7.0 | 13.0 | 0.00 | 0.00 | 0.00 | 45 | 1014.6 |
| 20260503181322 | 54 | 225 | 3.5 | 9.6 | 0.00 | 0.00 | 0.00 | 43 | 1015.0 |
| 20260503180818 | 56 | 217 | 3.5 | 8.7 | 0.00 | 0.00 | 0.00 | 47 | 1015.0 |
| 20260503180317 | 55 | 251 | 2.6 | 7.0 | 0.00 | 0.00 | 0.00 | 47 | 1015.0 |
| 20260503175813 | 53 | 311 | 2.6 | 13.0 | 0.00 | 0.00 | 0.00 | 47 | 1015.2 |
| 20260503175311 | 54 | 247 | 4.3 | 12.2 | 0.00 | 0.00 | 0.00 | 46 | 1015.0 |
| 20260503174806 | 53 | 266 | 9.6 | 16.5 | 0.00 | 0.00 | 0.00 | 47 | 1015.0 |
| 20260503174304 | 52 | 197 | 9.6 | 9.6 | 0.00 | 0.00 | 0.00 | 47 | 1015.1 |
| 20260503173800 | 52 | 287 | 3.5 | 11.3 | 0.00 | 0.00 | 0.00 | 49 | 1015.2 |
| 20260503173255 | 52 | 193 | 5.2 | 8.7 | 0.00 | 0.00 | 0.00 | 46 | 1015.3 |
| 20260503172753 | 52 | 180 | 1.7 | 7.0 | 0.00 | 0.00 | 0.00 | 49 | 1015.1 |
| 20260503172250 | 51 | 227 | 9.6 | 18.2 | 0.00 | 0.00 | 0.00 | 46 | 1015.3 |
| 20260503171746 | 53 | 305 | 3.5 | 16.5 | 0.00 | 0.00 | 0.00 | 47 | 1015.3 |
| 20260503171244 | 53 | 240 | 4.3 | 11.3 | 0.00 | 0.00 | 0.00 | 45 | 1015.3 |
| 20260503170740 | 53 | 203 | 5.2 | 9.6 | 0.00 | 0.00 | 0.00 | 49 | 1015.2 |
| 20260503170237 | 52 | 253 | 4.3 | 6.1 | 0.00 | 0.00 | 0.00 | 47 | 1015.3 |
| 20260503160159 | 51 | 301 | 1.7 | 7.8 | 0.00 | 0.00 | 0.00 | 46 | 1016.0 |
| 20260503150629 | 46 | 207 | 3.5 | 12.2 | 0.00 | 0.00 | 0.00 | 47 | 1016.0 |
| 20260503150125 | 48 | 270 | 2.6 | 8.7 | 0.00 | 0.00 | 0.00 | 48 | 1016.4 |